QPF
0.00 0.00 0.00 0.00 0.00 0.00 0.00 0.00 0.00 0.00 0.00 0.00 0.00 0.00 0.00 0.00 0.00 0.00 0.00 0.00 0.00 0.00 0.00 0.00 0.00 0.00 0.00 0.00 0.00 0.00 0.00 0.00 0.00 0.00 0.00 0.00 0.00 0.00 0.00 0.00 0.00 0.00 0.00 0.00 0.00 0.00 0.00 0.00 0.00 0.00 0.00 0.00
0.00 0.00 0.00 0.00 0.00 0.00 0.00 0.00 0.00 0.00 0.00 0.00 0.00 0.00 0.00 0.00 0.00 0.00 0.00 0.00 0.00 0.00 0.00 0.00 0.00 0.00 0.00 0.00 0.00 0.00 0.00 0.00 0.00 0.00 0.00 0.00 0.00 0.00 0.00 0.00 0.00 0.00 0.00 0.00 0.00 0.00 0.00 0.00 0.00 0.00 0.00 0.00
0.00 0.00 0.00 0.00 0.00 0.00 0.00 0.00 0.00 0.00 0.00 0.00 0.00 0.00 0.00 0.00 0.00 0.00 0.00 0.00 0.00 0.00 0.00 0.00 0.00 0.00 0.00 0.00 0.00 0.00 0.00 0.00 0.00 0.00 0.00 0.00 0.00 0.00 0.00 0.00 0.00 0.00 0.00 0.00 0.00 0.00 0.00 0.00 0.00 0.00 0.00 0.00
0.00 0.00 0.00 0.00 0.00 0.00 0.00 0.00 0.00 0.00 0.00 0.00 0.00 0.00 0.00 0.00 0.00 0.00 0.00 0.00 0.00 0.00 0.00 0.00 0.00 0.00 0.00 0.00 0.00 0.00 0.00 0.00 0.00 0.00 0.00 0.00 0.00 0.00 0.00 0.00 0.00 0.00 0.00 0.00 0.00 0.00 0.00 0.00 0.00 0.00 0.00 0.00
0.00 0.00 0.00 0.00 0.00 0.00 0.00 0.00 0.00 0.00 0.00 0.00 0.00 0.00 0.00 0.00 0.00 0.00 0.00 0.00 0.00 0.00 0.00 0.00 0.00 0.00 0.00 0.00 0.00 0.00 0.00 0.00 0.00 0.00 0.00 0.00 0.00 0.00 0.00 0.00 0.00 0.00 0.00 0.00 0.00 0.00 0.00 0.00 0.00 0.00 0.00 0.00
0.00 0.00 0.00 0.00 0.00 0.00 0.00 0.00 0.00 0.00 0.00 0.00 0.00 0.00 0.00 0.00 0.00 0.00 0.00 0.00 0.00 0.00 0.00 0.00 0.00 0.00 0.00 0.00 0.00 0.00 0.00 0.00 0.00 0.00 0.00 0.00 0.00 0.00 0.00 0.00 0.00 0.00 0.00 0.00 0.00 0.00 0.00 0.00 0.00 0.00 0.00 0.00
0.00 0.00 0.00 0.00 0.00 0.00 0.00 0.00 0.00 0.00 0.00 0.00 0.00 0.00 0.00 0.00 0.00 0.00 0.00 0.00 0.00 0.00 0.00 0.00 0.00 0.00 0.00 0.00 0.00 0.00 0.00 0.00 0.00 0.00 0.00 0.00 0.00 0.00 0.00 0.00 0.00 0.00 0.00 0.00 0.00 0.00 0.00 0.00 0.00 0.00 0.00 0.00
0.00 0.00 0.00 0.00 0.00 0.00 0.00 0.00 0.00 0.00 0.00 0.00 0.00 0.00 0.00 0.00 0.00 0.00 0.00 0.00 0.00 0.00 0.00 0.00 0.00 0.00 0.00 0.00 0.00 0.00 0.00 0.00 0.00 0.00 0.00 0.00 0.00 0.00 0.00 0.00 0.00 0.00 0.00 0.00 0.00 0.00 0.00 0.00 0.00 0.00 0.00 0.00
0.00 0.00 0.00 0.00 0.00 0.00 0.00 0.00 0.00 0.00 0.00 0.00 0.00 0.00 0.00 0.00 0.00 0.00 0.00 0.00 0.00 0.00 0.00 0.00 0.00 0.00 0.00 0.00 0.00 0.00 0.00 0.00 0.00 0.00 0.00 0.00 0.00 0.00 0.00 0.00 0.00 0.00 0.00 0.00 0.00 0.00 0.00 0.00 0.00 0.00 0.00 0.00
0.00 0.00 0.00 0.00 0.00 0.00 0.00 0.00 0.00 0.00 0.00 0.00 0.00 0.00 0.00 0.00 0.00 0.00 0.00 0.00 0.00 0.00 0.00 0.00 0.00 0.00 0.00 0.00 0.00 0.00 0.00 0.00 0.00 0.00 0.00 0.00 0.00 0.00 0.00 0.00 0.00 0.00 0.00 0.00 0.00 0.00 0.00 0.00 0.00 0.00 0.00 0.00
0.00 0.00 0.00 0.00 0.00 0.00 0.00 0.00 0.00 0.00 0.00 0.00 0.00 0.00 0.00 0.00 0.00 0.00 0.00 0.00 0.00 0.00 0.00 0.00 0.00 0.00 0.00 0.00 0.00 0.00 0.00 0.00 0.00 0.00 0.00 0.00 0.00 0.00 0.00 0.00 0.00 0.00 0.00 0.00 0.00 0.00 0.00 0.00 0.00 0.00 0.00 0.00
0.00 0.00 0.00 0.00 0.00 0.00 0.00 0.00 0.00 0.00 0.00 0.00 0.00 0.00 0.00 0.00 0.00 0.00 0.00 0.00 0.00 0.00 0.00 0.00 0.00 0.00 0.00 0.00 0.00 0.00 0.00 0.00 0.00 0.00 0.00 0.00 0.00 0.00 0.00 0.00 0.00 0.00 0.00 0.00 0.00 0.00 0.00 0.00 0.00 0.00 0.00 0.00
0.00 0.00 0.00 0.00 0.00 0.00 0.00 0.00 0.00 0.00 0.00 0.00 0.00 0.00 0.00 0.00 0.00 0.00 0.00 0.00 0.00 0.00 0.00 0.00 0.00 0.00 0.00 0.00 0.00 0.00 0.00 0.00 0.00 0.00 0.00 0.00 0.00 0.00 0.00 0.00 0.00 0.00 0.00 0.00 0.00 0.00 0.00 0.00 0.00 0.00 0.00 0.00
0.00 0.00 0.00 0.00 0.00 0.00 0.00 0.00 0.00 0.00 0.00 0.00 0.00 0.00 0.00 0.00 0.00 0.00 0.00 0.00 0.00 0.00 0.00 0.00 0.00 0.00 0.00 0.00 0.00 0.00 0.00 0.00 0.00 0.00 0.00 0.00 0.00 0.00 0.00 0.00 0.00 0.00 0.00 0.00 0.00 0.00 0.00 0.00 0.00 0.00 0.00 0.00
0.00 0.00 0.00 0.00 0.00 0.00 0.00 0.00 0.00 0.00 0.00 0.00 0.00 0.00 0.00 0.00 0.00 0.00 0.00 0.00 0.00 0.00 0.00 0.00 0.00 0.00 0.00 0.00 0.00 0.00 0.00 0.00 0.00 0.00 0.00 0.00 0.00 0.00 0.00 0.00 0.00 0.00 0.00 0.00 0.00 0.00 0.00 0.00 0.00 0.00 0.00 0.00
0.00 0.00 0.00 0.00 0.00 0.00 0.00 0.00 0.00 0.00 0.00 0.00 0.00 0.00 0.00 0.00 0.00 0.00 0.00 0.00 0.00 0.00 0.00 0.00 0.00 0.00 0.00 0.00 0.00 0.00 0.00 0.00 0.00 0.00 0.00 0.00 0.00 0.00 0.00 0.00 0.00 0.00 0.00 0.00 0.00 0.00 0.00 0.00 0.00 0.00 0.00 0.00
0.00 0.00 0.00 0.00 0.00 0.00 0.00 0.00 0.00 0.00 0.00 0.00 0.00 0.00 0.00 0.00 0.00 0.00 0.00 0.00 0.00 0.00 0.00 0.00 0.00 0.00 0.00 0.00 0.00 0.00 0.00 0.00 0.00 0.00 0.00 0.00 0.00 0.00 0.00 0.00 0.00 0.00 0.00 0.00 0.00 0.00 0.00 0.00 0.00 0.00 0.00 0.00
0.00 0.00 0.00 0.00 0.00 0.00 0.00 0.00 0.00 0.00 0.00 0.00 0.00 0.00 0.00 0.00 0.00 0.00 0.00 0.00 0.00 0.00 0.00 0.00 0.00 0.00 0.00 0.00 0.00 0.00 0.00 0.00 0.00 0.00 0.00 0.00 0.00 0.00 0.00 0.00 0.00 0.00 0.00 0.00 0.00 0.00 0.00 0.00 0.00 0.00 0.00 0.00
0.00 0.00 0.00 0.00 0.00 0.00 0.00 0.00 0.00 0.00 0.00 0.00 0.00 0.00 0.00 0.00 0.00 0.00 0.00 0.00 0.00 0.00 0.00 0.00 0.00 0.00 0.00 0.00 0.00 0.00 0.00 0.00 0.00 0.00 0.00 0.00 0.00 0.00 0.00 0.00 0.00 0.00 0.00 0.00 0.00 0.00 0.00 0.00 0.00 0.00 0.00 0.00
0.00 0.00 0.00 0.00 0.00 0.00 0.00 0.00 0.00 0.00 0.00 0.00 0.00 0.00 0.00 0.00 0.00 0.00 0.00 0.00 0.00 0.00 0.00 0.00 0.00 0.00 0.00 0.00 0.00 0.00 0.00 0.00 0.00 0.00 0.00 0.00 0.00 0.00 0.00 0.00 0.00 0.00 0.00 0.00 0.00 0.00 0.00 0.00 0.00 0.00 0.00 0.00
0.00 0.00 0.00 0.00 0.00 0.00 0.00 0.00 0.00 0.00 0.00 0.00 0.00 0.00 0.00 0.00 0.00 0.00 0.00 0.00 0.00 0.00 0.00 0.00 0.00 0.00 0.00 0.00 0.00 0.00 0.00 0.00 0.00 0.00 0.00 0.00 0.00 0.00 0.00 0.00 0.00 0.00 0.00 0.00 0.00 0.00 0.00 0.00 0.00 0.00 0.00 0.00
0.00 0.00 0.00 0.00 0.00 0.00 0.00 0.00 0.00 0.00 0.00 0.00 0.00 0.00 0.00 0.00 0.00 0.00 0.00 0.00 0.00 0.00 0.00 0.00 0.00 0.00 0.00 0.00 0.00 0.00 0.00 0.00 0.00 0.00 0.00 0.00 0.00 0.00 0.00 0.00 0.00 0.00 0.00 0.00 0.00 0.00 0.00 0.00 0.00 0.00 0.00 0.00
0.00 0.00 0.00 0.00 0.00 0.00 0.00 0.00 0.00 0.00 0.00 0.00 0.00 0.00 0.00 0.00 0.00 0.00 0.00 0.00 0.00 0.00 0.00 0.00 0.00 0.00 0.00 0.00 0.00 0.00 0.00 0.00 0.00 0.00 0.00 0.00 0.00 0.00 0.00 0.00 0.00 0.00 0.00 0.00 0.00 0.00 0.00 0.00 0.00 0.00 0.00 0.00
0.00 0.00 0.00 0.00 0.00 0.00 0.00 0.00 0.00 0.00 0.00 0.00 0.00 0.00 0.00 0.00 0.00 0.00 0.00 0.00 0.00 0.00 0.00 0.00 0.00 0.00 0.00 0.00 0.00 0.00 0.00 0.00 0.00 0.00 0.00 0.00 0.00 0.00 0.00 0.00 0.00 0.00 0.00 0.00 0.00 0.00 0.00 0.00 0.00 0.00 0.00 0.00
0.00 0.00 0.00 0.00 0.00 0.00 0.00 0.00 0.00 0.00 0.00 0.00 0.00 0.00 0.00 0.00 0.00 0.00 0.00 0.00 0.00 0.00 0.00 0.00 0.00 0.00 0.00 0.00 0.00 0.00 0.00 0.00 0.00 0.00 0.00 0.00 0.00 0.00 0.00 0.00 0.00 0.00 0.00 0.00 0.00 0.00 0.00 0.00 0.00 0.00 0.00 0.00
0.00 0.00 0.00 0.00 0.00 0.00 0.00 0.00 0.00 0.00 0.00 0.00 0.00 0.00 0.00 0.00 0.00 0.00 0.00 0.00 0.00 0.00 0.00 0.00 0.00 0.00 0.00 0.00 0.00 0.00 0.00 0.00 0.00 0.00 0.00 0.00 0.00 0.00 0.00 0.00 0.00 0.00 0.00 0.00 0.00 0.00 0.00 0.00 0.00 0.00 0.00 0.00
0.00 0.00 0.00 0.00 0.00 0.00 0.00 0.00 0.00 0.00 0.00 0.00 0.00 0.00 0.00 0.00 0.00 0.00 0.00 0.00 0.00 0.00 0.00 0.00 0.00 0.00 0.00 0.00 0.00 0.00 0.00 0.00 0.00 0.00 0.00 0.00 0.00 0.00 0.00 0.00 0.00 0.00 0.00 0.00 0.00 0.00 0.00 0.00 0.00 0.00 0.00 0.00
0.00 0.00 0.00 0.00 0.00 0.00 0.00 0.00 0.00 0.00 0.00 0.00 0.00 0.00 0.00 0.00 0.00 0.00 0.00 0.00 0.00 0.00 0.00 0.00 0.00 0.00 0.00 0.00 0.00 0.00 0.00 0.00 0.00 0.00 0.00 0.00 0.00 0.00 0.00 0.00 0.00 0.00 0.00 0.00 0.00 0.00 0.00 0.00 0.00 0.00 0.00 0.00
0.00 0.00 0.00 0.00 0.00 0.00 0.00 0.00 0.00 0.00 0.00 0.00 0.00 0.00 0.00 0.00 0.00 0.00 0.00 0.00 0.00 0.00 0.00 0.00 0.00 0.00 0.00 0.00 0.00 0.00 0.00 0.00 0.00 0.00 0.00 0.00 0.00 0.00 0.00 0.00 0.00 0.00 0.00 0.00 0.00 0.00 0.00 0.00 0.00 0.00 0.00 0.00
0.00 0.00 0.00 0.00 0.00 0.00 0.00 0.00 0.00 0.00 0.00 0.00 0.00 0.00 0.00 0.00 0.00 0.00 0.00 0.00 0.00 0.00 0.00 0.00 0.00 0.00 0.00 0.00 0.00 0.00 0.00 0.00 0.00 0.00 0.00 0.00 0.00 0.00 0.00 0.00 0.00 0.00 0.00 0.00 0.00 0.00 0.00 0.00 0.00 0.00 0.00 0.00
0.00 0.00 0.00 0.00 0.00 0.00 0.00 0.00 0.00 0.00 0.00 0.00 0.00 0.00 0.00 0.00 0.00 0.00 0.00 0.00 0.00 0.00 0.00 0.00 0.00 0.00 0.00 0.00 0.00 0.00 0.00 0.00 0.00 0.00 0.00 0.00 0.00 0.00 0.00 0.00 0.00 0.00 0.00 0.00 0.00 0.00 0.00 0.00 0.00 0.00 0.00 0.00
MSLP
1024.78 1024.94 1025.06 1025.14 1025.22 1025.34 1025.42 1025.46 1025.50 1025.54 1025.58 1025.62 1025.66 1025.62 1025.66 1025.70 1025.74 1025.70 1025.62 1025.50 1025.42 1025.30 1025.26 1025.18 1025.10 1025.02 1024.90 1024.78 1024.62 1024.46 1024.22 1024.14 1024.06 1023.90 1023.78 1023.90 1023.78 1023.58 1023.58 1023.62 1023.46 1023.46 1023.54 1023.46 1023.34 1023.30 1023.30 1023.34 1023.38 1023.50 1023.74 1024.06
1024.86 1024.94 1025.06 1025.18 1025.26 1025.34 1025.46 1025.50 1025.54 1025.58 1025.62 1025.66 1025.70 1025.74 1025.78 1025.82 1025.86 1025.86 1025.78 1025.70 1025.62 1025.50 1025.46 1025.38 1025.30 1025.22 1025.10 1024.86 1024.66 1024.50 1024.34 1024.22 1024.06 1023.86 1023.82 1023.90 1023.78 1023.58 1023.66 1023.62 1023.50 1023.54 1023.62 1023.54 1023.42 1023.38 1023.30 1023.30 1023.34 1023.46 1023.66 1023.98
1024.94 1024.94 1025.06 1025.18 1025.26 1025.34 1025.38 1025.46 1025.50 1025.54 1025.58 1025.66 1025.74 1025.78 1025.86 1025.90 1025.94 1025.98 1025.98 1025.94 1025.82 1025.74 1025.62 1025.58 1025.54 1025.42 1025.18 1024.98 1024.78 1024.62 1024.46 1024.30 1024.18 1024.06 1023.98 1023.94 1023.82 1023.74 1023.66 1023.62 1023.70 1023.74 1023.74 1023.62 1023.54 1023.46 1023.38 1023.30 1023.34 1023.50 1023.70 1023.82
1025.06 1025.06 1025.06 1025.14 1025.22 1025.30 1025.34 1025.42 1025.50 1025.54 1025.58 1025.66 1025.74 1025.82 1025.90 1025.94 1026.02 1026.10 1026.18 1026.06 1026.06 1025.98 1025.82 1025.82 1025.70 1025.50 1025.26 1025.10 1024.90 1024.78 1024.62 1024.50 1024.34 1024.18 1024.06 1023.94 1023.90 1023.78 1023.70 1023.66 1023.86 1023.90 1023.82 1023.74 1023.66 1023.62 1023.50 1023.42 1023.46 1023.70 1023.78 1023.70
1025.14 1025.18 1025.14 1025.14 1025.18 1025.26 1025.34 1025.38 1025.46 1025.54 1025.58 1025.62 1025.70 1025.78 1025.90 1025.94 1026.06 1026.18 1026.22 1026.26 1026.26 1026.06 1026.06 1025.90 1025.78 1025.62 1025.42 1025.18 1025.02 1024.90 1024.86 1024.74 1024.58 1024.38 1024.18 1024.06 1023.94 1023.90 1023.82 1023.82 1023.98 1023.98 1023.90 1023.82 1023.74 1023.70 1023.66 1023.62 1023.78 1023.82 1023.74 1023.62
1025.22 1025.26 1025.22 1025.30 1025.34 1025.30 1025.34 1025.38 1025.42 1025.50 1025.58 1025.66 1025.78 1025.82 1025.90 1026.02 1026.10 1026.14 1026.22 1026.30 1026.26 1026.22 1026.10 1026.02 1025.82 1025.70 1025.50 1025.30 1025.14 1025.06 1025.02 1024.94 1024.86 1024.66 1024.46 1024.26 1024.14 1024.06 1024.02 1024.10 1024.30 1024.22 1024.06 1023.94 1023.82 1023.74 1023.74 1023.94 1023.98 1023.82 1023.74 1023.62
1025.18 1025.26 1025.34 1025.34 1025.38 1025.38 1025.34 1025.38 1025.42 1025.50 1025.54 1025.66 1025.78 1025.86 1025.94 1025.98 1026.10 1026.14 1026.22 1026.26 1026.26 1026.18 1026.02 1025.98 1025.86 1025.78 1025.62 1025.46 1025.38 1025.30 1025.18 1025.14 1025.02 1024.86 1024.66 1024.58 1024.46 1024.26 1024.30 1024.46 1024.50 1024.38 1024.30 1024.18 1023.94 1023.90 1023.94 1023.98 1023.94 1023.86 1023.70 1023.54
1025.14 1025.22 1025.30 1025.34 1025.38 1025.38 1025.42 1025.42 1025.46 1025.50 1025.58 1025.66 1025.74 1025.82 1025.94 1025.98 1026.06 1026.10 1026.18 1026.14 1026.10 1026.06 1026.10 1026.14 1026.02 1025.90 1025.82 1025.74 1025.66 1025.54 1025.46 1025.38 1025.26 1025.02 1024.94 1024.86 1024.70 1024.70 1024.70 1024.62 1024.54 1024.46 1024.38 1024.22 1024.14 1024.02 1023.90 1023.82 1023.74 1023.70 1023.58 1023.50
1025.02 1025.14 1025.30 1025.30 1025.34 1025.38 1025.42 1025.42 1025.46 1025.54 1025.58 1025.62 1025.70 1025.82 1025.90 1025.94 1026.02 1026.06 1026.14 1026.18 1026.18 1026.18 1026.18 1026.18 1026.10 1026.06 1025.98 1025.94 1025.86 1025.70 1025.66 1025.54 1025.42 1025.30 1025.22 1025.10 1024.94 1024.90 1024.78 1024.66 1024.54 1024.46 1024.30 1024.26 1024.14 1024.06 1023.94 1023.78 1023.62 1023.50 1023.38 1023.34
1024.86 1025.10 1025.14 1025.18 1025.22 1025.38 1025.38 1025.42 1025.46 1025.50 1025.54 1025.58 1025.66 1025.74 1025.82 1025.90 1025.98 1026.02 1026.06 1026.10 1026.10 1026.10 1026.14 1026.10 1026.02 1025.98 1025.98 1025.94 1025.82 1025.78 1025.70 1025.58 1025.50 1025.38 1025.30 1025.14 1024.98 1024.82 1024.78 1024.66 1024.54 1024.46 1024.34 1024.26 1024.18 1024.06 1023.94 1023.78 1023.58 1023.46 1023.30 1023.18
1024.82 1024.86 1024.90 1025.02 1025.18 1025.26 1025.22 1025.38 1025.46 1025.42 1025.46 1025.50 1025.58 1025.66 1025.74 1025.82 1025.82 1025.90 1025.98 1025.98 1025.98 1025.98 1026.02 1025.98 1025.94 1025.90 1025.90 1025.86 1025.78 1025.74 1025.70 1025.58 1025.50 1025.42 1025.30 1025.18 1025.02 1024.86 1024.74 1024.58 1024.50 1024.38 1024.34 1024.30 1024.18 1024.06 1023.94 1023.78 1023.58 1023.42 1023.30 1023.10
1024.66 1024.70 1024.86 1024.94 1025.02 1025.10 1025.02 1025.26 1025.30 1025.22 1025.30 1025.42 1025.50 1025.54 1025.62 1025.62 1025.70 1025.74 1025.82 1025.86 1025.90 1025.82 1025.98 1025.86 1025.82 1025.82 1025.82 1025.78 1025.70 1025.66 1025.66 1025.58 1025.46 1025.42 1025.34 1025.18 1024.98 1024.86 1024.70 1024.58 1024.42 1024.34 1024.26 1024.18 1024.14 1023.98 1023.82 1023.74 1023.58 1023.42 1023.26 1023.10
1024.54 1024.70 1024.82 1024.94 1024.98 1024.90 1024.98 1025.10 1025.02 1025.10 1025.26 1025.34 1025.38 1025.42 1025.46 1025.54 1025.58 1025.66 1025.74 1025.74 1025.66 1025.78 1025.82 1025.74 1025.74 1025.74 1025.70 1025.70 1025.58 1025.58 1025.54 1025.54 1025.46 1025.34 1025.30 1025.18 1025.06 1024.90 1024.74 1024.58 1024.42 1024.26 1024.14 1024.14 1024.06 1023.98 1023.74 1023.66 1023.50 1023.34 1023.18 1023.02
1024.90 1024.98 1025.02 1024.94 1025.02 1025.10 1025.06 1024.94 1025.02 1025.18 1025.18 1025.22 1025.30 1025.26 1025.30 1025.38 1025.42 1025.46 1025.46 1025.54 1025.58 1025.66 1025.58 1025.62 1025.62 1025.66 1025.58 1025.58 1025.46 1025.50 1025.46 1025.38 1025.42 1025.30 1025.22 1025.10 1025.02 1024.90 1024.74 1024.58 1024.42 1024.26 1024.06 1023.98 1023.94 1023.90 1023.70 1023.54 1023.42 1023.26 1023.14 1022.94
1024.78 1024.90 1024.90 1024.94 1025.02 1025.02 1024.98 1024.98 1025.06 1025.06 1025.10 1025.14 1025.18 1025.10 1025.18 1025.26 1025.26 1025.26 1025.42 1025.42 1025.42 1025.54 1025.50 1025.50 1025.50 1025.46 1025.50 1025.50 1025.30 1025.38 1025.34 1025.30 1025.30 1025.26 1025.22 1025.10 1025.02 1024.90 1024.74 1024.54 1024.42 1024.34 1024.10 1023.94 1023.82 1023.78 1023.66 1023.46 1023.34 1023.18 1023.06 1022.90
1024.66 1024.70 1024.78 1024.82 1024.94 1024.90 1024.90 1024.98 1024.94 1024.98 1025.02 1024.94 1024.98 1025.02 1025.10 1025.14 1025.18 1025.22 1025.26 1025.34 1025.34 1025.38 1025.34 1025.34 1025.34 1025.30 1025.38 1025.22 1025.18 1025.22 1025.22 1025.18 1025.14 1025.14 1025.10 1025.06 1024.98 1024.90 1024.78 1024.58 1024.46 1024.34 1024.18 1023.86 1023.70 1023.66 1023.54 1023.38 1023.22 1023.06 1022.94 1022.74
1024.74 1024.82 1024.86 1024.90 1024.90 1024.90 1024.90 1024.90 1024.94 1024.90 1024.86 1024.86 1024.86 1024.94 1024.98 1025.02 1025.06 1025.10 1025.14 1025.14 1025.18 1025.10 1025.14 1025.14 1025.18 1025.18 1025.14 1025.02 1024.98 1025.02 1025.06 1025.06 1025.06 1025.06 1024.98 1024.90 1024.86 1024.78 1024.70 1024.54 1024.30 1024.18 1024.10 1023.86 1023.62 1023.58 1023.42 1023.34 1023.06 1022.94 1022.82 1022.62
1024.70 1024.74 1024.78 1024.82 1024.86 1024.86 1024.82 1024.82 1024.86 1024.78 1024.78 1024.86 1024.82 1024.86 1024.86 1024.86 1024.90 1024.94 1025.02 1025.02 1024.98 1025.02 1025.02 1025.02 1025.02 1024.98 1024.90 1024.82 1024.82 1024.86 1024.90 1024.90 1024.90 1024.94 1024.90 1024.74 1024.78 1024.62 1024.50 1024.38 1024.18 1024.14 1023.94 1023.70 1023.62 1023.50 1023.34 1023.22 1022.98 1022.82 1022.66 1022.46
1024.66 1024.70 1024.70 1024.70 1024.70 1024.70 1024.70 1024.70 1024.70 1024.66 1024.74 1024.78 1024.74 1024.78 1024.74 1024.78 1024.82 1024.82 1024.86 1024.90 1024.90 1024.86 1024.94 1024.94 1024.90 1024.86 1024.66 1024.62 1024.70 1024.74 1024.70 1024.78 1024.74 1024.82 1024.74 1024.66 1024.66 1024.54 1024.50 1024.38 1024.18 1024.06 1023.94 1023.74 1023.50 1023.30 1023.22 1023.06 1022.82 1022.74 1022.46 1022.22
1024.66 1024.62 1024.62 1024.62 1024.58 1024.50 1024.58 1024.54 1024.54 1024.58 1024.62 1024.58 1024.58 1024.62 1024.62 1024.62 1024.66 1024.66 1024.66 1024.70 1024.74 1024.78 1024.74 1024.78 1024.70 1024.50 1024.46 1024.50 1024.58 1024.58 1024.58 1024.70 1024.62 1024.54 1024.58 1024.46 1024.54 1024.46 1024.22 1024.18 1023.98 1023.94 1023.86 1023.70 1023.50 1023.26 1023.14 1022.94 1022.82 1022.62 1022.34 1022.10
1024.46 1024.50 1024.42 1024.42 1024.46 1024.42 1024.38 1024.30 1024.30 1024.34 1024.42 1024.38 1024.34 1024.38 1024.42 1024.38 1024.46 1024.42 1024.42 1024.42 1024.46 1024.54 1024.46 1024.46 1024.46 1024.26 1024.22 1024.30 1024.38 1024.38 1024.38 1024.46 1024.38 1024.42 1024.38 1024.26 1024.26 1024.34 1024.18 1024.06 1023.94 1023.82 1023.74 1023.62 1023.42 1023.26 1023.06 1022.86 1022.70 1022.46 1022.14 1021.90
1024.46 1024.46 1024.46 1024.38 1024.38 1024.34 1024.18 1024.14 1024.18 1024.14 1024.18 1024.02 1024.06 1024.10 1024.06 1024.06 1024.10 1024.06 1024.06 1024.06 1024.10 1024.22 1024.14 1024.14 1024.14 1023.98 1023.98 1024.06 1024.18 1024.18 1024.22 1024.14 1024.14 1024.22 1024.22 1024.10 1023.98 1024.06 1024.14 1023.98 1023.86 1023.58 1023.42 1023.42 1023.30 1023.10 1022.86 1022.58 1022.50 1022.22 1021.94 1021.66
1024.46 1024.42 1024.38 1024.34 1024.30 1024.18 1024.06 1024.02 1024.02 1024.02 1023.82 1023.82 1023.86 1023.86 1023.82 1023.82 1023.82 1023.74 1023.74 1023.70 1023.74 1023.90 1023.86 1023.86 1023.86 1023.86 1023.70 1023.82 1023.90 1023.94 1023.94 1023.90 1023.86 1023.86 1023.90 1023.94 1023.66 1023.70 1023.78 1023.74 1023.58 1023.42 1023.34 1023.26 1023.14 1022.90 1022.46 1022.30 1022.10 1021.86 1021.62 1021.30
1024.42 1024.42 1024.38 1024.22 1024.14 1024.06 1023.94 1023.86 1023.78 1023.74 1023.74 1023.70 1023.70 1023.58 1023.62 1023.62 1023.58 1023.54 1023.46 1023.42 1023.46 1023.62 1023.58 1023.62 1023.54 1023.54 1023.46 1023.54 1023.66 1023.70 1023.70 1023.54 1023.46 1023.42 1023.46 1023.50 1023.50 1023.38 1023.34 1023.38 1023.34 1023.26 1023.26 1023.10 1023.02 1022.58 1022.14 1021.98 1021.70 1021.46 1021.10 1020.82
1024.54 1024.46 1024.34 1024.34 1024.18 1024.14 1024.06 1023.94 1023.78 1023.74 1023.54 1023.54 1023.46 1023.38 1023.38 1023.38 1023.34 1023.30 1023.26 1023.18 1023.22 1023.26 1023.26 1023.30 1023.22 1023.26 1023.18 1023.22 1023.34 1023.34 1023.22 1022.98 1022.98 1023.02 1023.14 1023.14 1023.18 1023.14 1023.10 1022.94 1022.90 1022.98 1023.14 1023.14 1022.54 1022.10 1021.90 1021.58 1021.38 1020.98 1020.54 1020.42
1024.98 1024.94 1024.90 1024.78 1024.50 1024.46 1024.38 1024.10 1023.90 1023.62 1023.46 1023.30 1023.26 1023.22 1023.22 1023.18 1023.10 1023.06 1022.98 1022.90 1022.86 1022.86 1022.90 1022.86 1022.86 1022.86 1022.78 1022.78 1022.94 1022.94 1022.86 1022.86 1022.82 1022.82 1022.90 1023.02 1023.14 1023.06 1023.14 1022.98 1022.58 1022.78 1022.98 1023.14 1022.94 1022.26 1021.58 1021.22 1020.82 1020.30 1020.18 1020.14
1025.46 1025.46 1025.30 1025.34 1025.10 1024.98 1024.78 1024.46 1024.30 1024.22 1023.94 1023.82 1023.66 1023.46 1023.30 1023.14 1023.02 1022.86 1022.70 1022.58 1022.50 1022.50 1022.46 1022.42 1022.42 1022.38 1022.30 1022.42 1022.50 1022.66 1022.66 1022.70 1022.74 1022.66 1022.70 1022.86 1022.98 1022.78 1022.94 1022.90 1022.58 1022.70 1022.82 1022.94 1022.58 1022.78 1022.78 1021.94 1020.70 1019.66 1019.82 1019.66
1025.82 1025.78 1025.58 1025.42 1025.26 1025.02 1024.94 1024.50 1024.18 1024.14 1023.98 1023.74 1023.54 1023.26 1023.18 1023.10 1022.90 1022.70 1022.62 1022.46 1022.34 1022.26 1022.10 1022.02 1021.98 1021.90 1022.02 1021.98 1022.10 1022.26 1022.30 1022.26 1022.34 1022.38 1022.46 1022.58 1022.70 1022.90 1022.94 1022.66 1022.34 1022.26 1022.46 1022.62 1022.86 1023.10 1022.38 1022.18 1022.30 1021.26 1019.98 1019.70
1026.06 1025.82 1025.62 1025.46 1025.22 1024.98 1024.66 1024.46 1024.30 1024.06 1023.70 1023.42 1023.22 1023.10 1022.98 1022.70 1022.66 1022.58 1022.50 1022.38 1022.26 1022.18 1021.98 1021.78 1021.74 1021.66 1021.58 1021.62 1021.70 1021.90 1022.02 1021.94 1021.78 1021.86 1021.98 1022.10 1022.38 1022.54 1022.50 1022.30 1022.14 1022.06 1022.22 1022.34 1022.30 1022.42 1022.42 1022.50 1022.06 1021.50 1020.78 1020.18
1026.18 1026.06 1025.90 1025.54 1025.26 1024.98 1024.90 1024.78 1024.54 1024.18 1023.78 1023.38 1023.26 1022.98 1022.70 1022.62 1022.50 1022.38 1022.26 1022.18 1022.02 1021.90 1021.82 1021.70 1021.50 1021.42 1021.34 1021.30 1021.30 1021.42 1021.46 1021.46 1021.62 1021.62 1021.62 1021.66 1021.86 1022.06 1022.06 1022.06 1022.06 1021.98 1021.86 1021.98 1022.18 1022.06 1021.78 1021.54 1021.22 1020.94 1020.86 1021.30
1026.34 1026.14 1025.90 1025.82 1025.78 1025.66 1025.42 1025.10 1024.50 1024.18 1023.86 1023.66 1023.22 1023.02 1022.78 1022.54 1022.38 1022.18 1022.02 1021.86 1021.78 1021.66 1021.54 1021.46 1021.34 1021.26 1021.14 1020.98 1020.90 1020.90 1021.10 1021.22 1021.14 1021.02 1021.10 1021.26 1021.54 1021.50 1021.58 1021.90 1022.06 1021.86 1021.62 1021.74 1021.90 1021.74 1021.58 1021.46 1021.18 1021.22 1021.58 1021.74
Thickness
5558 5557 5554 5553 5550 5549 5547 5545 5544 5542 5541 5539 5537 5536 5535 5533 5532 5531 5530 5530 5530 5530 5529 5530 5529 5529 5530 5530 5531 5532 5533 5534 5535 5536 5537 5537 5539 5540 5541 5542 5544 5545 5546 5548 5549 5550 5551 5553 5554 5555 5555 5556
5553 5551 5549 5547 5545 5543 5541 5539 5538 5536 5535 5533 5531 5529 5527 5526 5524 5522 5522 5521 5521 5521 5521 5521 5521 5521 5521 5522 5523 5524 5526 5527 5528 5529 5531 5531 5531 5533 5534 5535 5537 5539 5540 5541 5543 5545 5546 5547 5548 5550 5550 5551
5548 5545 5543 5541 5539 5537 5535 5534 5532 5530 5528 5526 5524 5522 5521 5518 5517 5515 5514 5513 5513 5512 5513 5513 5513 5513 5514 5515 5516 5517 5518 5520 5521 5523 5524 5525 5525 5527 5527 5528 5529 5531 5533 5535 5537 5539 5541 5542 5543 5545 5546 5547
5542 5540 5538 5536 5534 5532 5530 5528 5526 5524 5522 5519 5518 5516 5514 5512 5510 5509 5507 5506 5505 5505 5505 5505 5505 5506 5506 5507 5508 5509 5510 5512 5513 5515 5517 5518 5519 5521 5521 5522 5522 5524 5526 5528 5530 5532 5534 5536 5538 5539 5541 5543
5537 5535 5533 5530 5528 5526 5524 5521 5519 5518 5515 5514 5512 5510 5508 5506 5504 5503 5501 5500 5499 5498 5498 5498 5498 5498 5499 5500 5501 5501 5502 5503 5505 5507 5509 5511 5512 5514 5515 5516 5516 5518 5519 5521 5524 5526 5528 5530 5532 5534 5537 5539
5532 5529 5527 5524 5522 5520 5517 5515 5513 5511 5509 5507 5505 5503 5502 5500 5498 5497 5495 5494 5493 5492 5492 5491 5492 5492 5492 5493 5494 5494 5495 5496 5497 5499 5501 5504 5505 5507 5508 5509 5510 5512 5513 5515 5517 5519 5522 5524 5526 5529 5531 5534
5526 5524 5521 5519 5516 5513 5511 5509 5507 5505 5503 5501 5499 5498 5496 5494 5493 5491 5489 5488 5487 5486 5486 5486 5485 5486 5486 5486 5487 5487 5489 5489 5491 5492 5494 5496 5497 5499 5501 5503 5504 5505 5507 5509 5511 5513 5516 5518 5521 5523 5526 5528
5521 5519 5515 5513 5510 5507 5506 5504 5502 5500 5498 5495 5494 5492 5490 5489 5487 5485 5484 5483 5482 5481 5481 5481 5480 5481 5480 5480 5481 5481 5483 5484 5484 5486 5488 5489 5491 5493 5494 5496 5498 5500 5502 5503 5505 5507 5510 5513 5516 5518 5520 5523
5517 5513 5510 5508 5505 5503 5501 5498 5496 5494 5492 5490 5488 5487 5485 5483 5482 5480 5479 5478 5477 5476 5476 5476 5476 5476 5475 5476 5476 5476 5477 5478 5479 5480 5482 5483 5485 5486 5488 5489 5491 5493 5496 5497 5499 5501 5504 5507 5510 5513 5515 5518
5512 5508 5505 5503 5500 5497 5495 5493 5490 5489 5487 5485 5484 5482 5480 5478 5477 5476 5474 5473 5472 5472 5472 5471 5471 5472 5472 5471 5471 5472 5472 5473 5474 5475 5477 5478 5479 5481 5483 5484 5486 5488 5489 5491 5493 5495 5498 5500 5503 5506 5509 5513
5506 5503 5501 5498 5495 5493 5491 5488 5485 5484 5483 5481 5479 5478 5476 5474 5473 5472 5470 5469 5468 5468 5467 5467 5467 5467 5467 5467 5467 5467 5468 5469 5469 5470 5472 5473 5475 5476 5478 5479 5481 5482 5484 5486 5487 5489 5491 5494 5497 5499 5503 5506
5501 5498 5495 5493 5490 5488 5486 5483 5481 5481 5478 5477 5475 5473 5472 5470 5469 5468 5467 5465 5465 5464 5463 5463 5463 5463 5463 5463 5463 5463 5464 5464 5465 5465 5466 5468 5469 5471 5472 5474 5475 5477 5479 5480 5482 5484 5486 5488 5490 5493 5496 5499
5494 5491 5488 5486 5485 5483 5481 5479 5478 5476 5474 5472 5471 5469 5468 5467 5465 5465 5463 5462 5461 5460 5459 5459 5459 5459 5458 5458 5458 5459 5460 5460 5460 5461 5461 5462 5463 5465 5467 5468 5470 5472 5474 5475 5476 5479 5480 5483 5485 5487 5490 5492
5486 5483 5481 5480 5478 5476 5475 5474 5473 5470 5469 5468 5466 5465 5464 5463 5462 5461 5460 5459 5458 5456 5456 5455 5454 5454 5454 5454 5454 5455 5455 5455 5455 5456 5457 5457 5458 5460 5461 5463 5465 5467 5469 5470 5471 5473 5476 5477 5480 5482 5484 5487
5480 5477 5476 5474 5472 5471 5470 5469 5467 5465 5464 5463 5462 5461 5460 5459 5458 5457 5456 5455 5453 5452 5451 5451 5450 5449 5449 5449 5450 5450 5450 5450 5450 5451 5452 5452 5453 5454 5456 5458 5459 5461 5463 5465 5466 5468 5470 5472 5475 5477 5479 5481
5474 5472 5470 5469 5467 5466 5465 5463 5461 5461 5460 5458 5458 5456 5455 5454 5454 5452 5451 5450 5449 5448 5447 5446 5445 5445 5444 5444 5445 5445 5445 5445 5446 5446 5447 5447 5448 5449 5450 5452 5453 5454 5457 5460 5461 5462 5464 5467 5469 5471 5473 5476
5468 5467 5465 5463 5462 5461 5459 5458 5457 5456 5456 5454 5453 5452 5450 5450 5448 5447 5446 5445 5444 5443 5442 5442 5441 5440 5439 5440 5441 5440 5440 5440 5440 5440 5441 5442 5442 5444 5445 5447 5448 5449 5451 5454 5455 5457 5459 5461 5464 5465 5467 5470
5463 5461 5460 5458 5457 5456 5454 5453 5452 5451 5450 5449 5447 5446 5445 5445 5443 5442 5441 5440 5440 5439 5438 5437 5436 5435 5435 5435 5436 5435 5434 5434 5435 5434 5435 5436 5436 5437 5438 5440 5442 5443 5445 5447 5449 5451 5453 5455 5458 5459 5461 5464
5457 5456 5455 5454 5452 5450 5449 5448 5447 5446 5445 5443 5442 5441 5440 5439 5438 5437 5436 5435 5434 5433 5432 5431 5431 5430 5430 5430 5430 5429 5429 5429 5428 5428 5429 5429 5429 5431 5431 5433 5435 5436 5437 5440 5442 5444 5446 5448 5450 5453 5456 5458
5452 5451 5450 5449 5447 5446 5444 5443 5442 5441 5440 5438 5437 5436 5435 5434 5432 5432 5431 5429 5429 5428 5427 5426 5425 5426 5425 5425 5423 5424 5423 5422 5422 5421 5422 5422 5421 5423 5425 5426 5427 5428 5429 5431 5435 5437 5439 5441 5443 5445 5448 5451
5447 5446 5445 5443 5442 5441 5440 5438 5437 5436 5435 5434 5433 5431 5430 5429 5427 5426 5426 5424 5423 5422 5422 5421 5420 5421 5419 5418 5418 5417 5417 5415 5415 5415 5415 5416 5415 5415 5417 5418 5419 5420 5421 5423 5426 5429 5431 5432 5434 5437 5440 5443
5442 5441 5439 5439 5437 5435 5434 5433 5432 5431 5430 5429 5428 5426 5425 5423 5422 5421 5420 5419 5418 5417 5416 5416 5414 5415 5414 5412 5411 5411 5411 5409 5409 5408 5408 5409 5408 5407 5408 5410 5411 5412 5414 5416 5418 5421 5423 5424 5426 5430 5432 5435
5436 5435 5433 5432 5431 5429 5428 5427 5426 5425 5424 5422 5421 5420 5419 5418 5417 5416 5415 5414 5412 5411 5411 5409 5408 5408 5407 5406 5405 5404 5403 5403 5402 5401 5401 5401 5402 5401 5401 5401 5402 5404 5405 5407 5409 5412 5415 5417 5419 5422 5424 5427
5430 5428 5427 5425 5424 5423 5421 5419 5419 5417 5416 5415 5414 5413 5412 5412 5411 5410 5409 5408 5407 5405 5404 5403 5402 5402 5401 5399 5398 5397 5397 5397 5397 5395 5395 5394 5394 5395 5394 5394 5394 5394 5396 5398 5401 5403 5407 5410 5411 5414 5417 5419
5421 5420 5419 5418 5417 5415 5414 5413 5411 5410 5409 5408 5407 5407 5406 5405 5405 5404 5403 5402 5401 5399 5398 5397 5396 5395 5395 5393 5391 5391 5391 5391 5391 5389 5387 5387 5386 5386 5387 5388 5387 5385 5385 5387 5390 5395 5399 5401 5403 5406 5409 5411
5411 5410 5408 5407 5407 5406 5405 5405 5404 5403 5403 5402 5400 5400 5399 5399 5398 5398 5397 5396 5395 5394 5393 5391 5390 5389 5388 5387 5385 5384 5383 5382 5382 5381 5379 5378 5377 5376 5376 5378 5378 5376 5374 5375 5378 5382 5387 5392 5396 5399 5400 5401
5401 5399 5397 5396 5395 5395 5396 5397 5397 5396 5396 5395 5393 5392 5391 5390 5391 5391 5391 5390 5389 5388 5387 5386 5385 5383 5382 5380 5378 5376 5375 5374 5373 5371 5370 5368 5367 5367 5366 5367 5368 5366 5364 5365 5365 5366 5370 5378 5384 5390 5391 5390
5390 5389 5388 5387 5387 5386 5386 5388 5389 5389 5389 5388 5387 5386 5384 5383 5383 5383 5382 5382 5382 5381 5381 5380 5379 5378 5376 5374 5371 5369 5368 5366 5365 5363 5362 5359 5357 5356 5356 5357 5359 5358 5356 5354 5353 5353 5357 5360 5363 5373 5380 5381
5381 5380 5380 5379 5380 5380 5380 5380 5380 5380 5382 5382 5381 5380 5378 5377 5374 5373 5373 5372 5372 5372 5372 5372 5371 5370 5369 5367 5364 5362 5360 5360 5359 5356 5354 5351 5349 5347 5346 5347 5350 5349 5347 5345 5344 5343 5344 5346 5348 5357 5363 5366
5372 5371 5371 5371 5371 5371 5370 5370 5370 5370 5371 5373 5373 5373 5372 5370 5368 5365 5364 5362 5362 5361 5361 5361 5361 5360 5360 5359 5357 5355 5354 5353 5351 5349 5347 5344 5341 5339 5338 5337 5338 5339 5337 5335 5335 5335 5334 5336 5339 5344 5345 5345
5364 5363 5362 5361 5359 5357 5356 5357 5360 5361 5361 5362 5362 5363 5363 5362 5361 5359 5358 5355 5354 5352 5351 5351 5351 5350 5349 5349 5349 5347 5345 5344 5343 5341 5340 5336 5333 5332 5330 5327 5327 5329 5327 5325 5326 5325 5324 5327 5327 5328 5329 5328